TIME,DELAY(SENSOR),PRES,T(CTD),SAL,OXYGEN,RAWTEMP,T(OPTODE),TCPHASE,FLUOR,BETA(BETA700),BETA(BETA412),BETA(BETA440),CDOM,C(CSC),ED(ED411.90),ED(ED443.80),ED(ED489.40),ED(ED554.70),LU(LU412.20),LU(LU443.80),LU(LU489.40),LU(LU555.00),COMP,TILTX,TILTX(TILTY),CHECK
1363882402,5808,497.6099853515625000,17.3453998565673830,36.4308013916015600,225.1831054687500000,177.0263977050781200,17.3410205841064450,31.5151996612548830,78,716,95,79,67,11419,2146962752,2147512054,2147269449,2147460370,2147084754,2146955849,2147655789,2147119689,323,-1,8,10769
1363882529,5804,485.9599914550781000,17.4477005004882800,36.4452018737793000,223.7783050537109400,173.6419067382812500,17.4431190490722660,31.5409507751464840,77,696,94,79,68,11419,2146960886,2147512457,2147269696,2147461714,2147082459,2146949915,2147653778,2147128192,2570,-1,8,55763
1363882646,5806,475.3999938964844000,17.5685005187988280,36.4701995849609400,225.7127075195312500,169.7337951660156200,17.5610408782959000,31.3887500762939450,79,720,94,78,67,11418,2146960448,2147513435,2147268544,2147458934,2147084480,2146959707,2147650761,2147130587,2024,-1,8,27185
1363882773,5806,464.0299987792969000,17.7324008941650400,36.4989013671875000,227.8659057617187500,164.2877960205078000,17.7254009246826170,31.2059593200683600,79,736,95,78,68,11421,2146958610,2147516580,2147268681,2147462372,2147084553,2146958372,2147654034,2147129325,1397,-2,9,63740
1363882900,5803,452.6700134277344000,17.7530994415283200,36.5050010681152340,229.0122070312500000,163.5260925292968800,17.7483901977539060,31.1385402679443360,78,732,95,79,67,11416,2146959442,2147514724,2147267218,2147455771,2147086107,2146958528,2147650569,2147130084,1120,-1,9,7759
1363883030,5805,441.8299865722656000,17.8540992736816400,36.5211982727050800,228.9837951660156200,160.2225952148437500,17.8481101989746100,31.0953998565673830,78,696,94,77,65,11416,2146960146,2147514139,2147269275,2147455561,2147084077,2146957248,2147650907,2147126372,481,-1,8,64206
1363883169,5805,430.2300109863281000,17.8617000579834000,36.5168991088867200,227.1761932373047000,159.8910064697265600,17.8581295013427730,31.1812992095947270,78,708,94,78,67,11415,2146958930,2147515062,2147265563,2147456292,2147084141,2146953773,2147652754,2147125787,3214,-2,8,613
1363883298,5804,419.4899902343750000,17.8941001892089840,36.5209999084472660,225.2568969726562500,158.7711944580078000,17.8919391632080080,31.2632102966308600,78,730,94,79,67,11414,2146958848,2147509494,2147263323,2147455350,2147082834,2146957988,2147647936,2147128621,2394,-2,8,23515
1363883437,5805,408.0599975585937500,18.0235996246337900,36.5399017333984400,225.1495056152343800,154.4414062500000000,18.0226802825927730,31.2098293304443360,78,686,95,79,68,11412,2146958537,2147515337,2147270427,2147451858,2147084251,2146955803,2147651035,2147129316,3540,-1,8,20272
1363883566,5805,397.6600036621094000,18.1236991882324220,36.5541992187500000,224.8822937011718800,151.1981964111328000,18.1206398010253900,31.1799392700195300,77,704,93,78,67,11412,2146958464,2147512411,2147265188,2147456256,2147088420,2146953590,2147649225,2147128868,623,-1,8,30349
1363883705,5808,386.5000000000000000,18.2364006042480470,36.5695991516113300,225.1372070312500000,147.5554046630859400,18.2306995391845700,31.1175994873046880,79,725,94,77,67,11412,2146955291,2147516598,2147268982,2147453120,2147085915,2146954185,2147649490,2147132571,1710,-1,8,64545
1363883844,5805,375.2999877929687500,18.3239002227783200,36.5766983032226560,223.7985992431640600,144.6907958984375000,18.3172607421875000,31.1473007202148440,78,708,96,78,68,11409,2146955574,2147512109,2147263835,2147450587,2147076525,2146959670,2147651547,2147127177,1552,-2,8,30219
1363883974,5807,364.7900085449219000,18.3617000579834000,36.5800018310546900,222.3437957763672000,143.4019927978515600,18.3562107086181640,31.2042198181152340,77,708,94,78,67,11411,2146959936,2147513060,2147267812,2147448996,2147075611,2146957558,2147647744,2147125906,555,-2,8,34237
1363884113,5803,353.2200012207031000,18.4111995697021500,36.5789985656738300,222.3957977294922000,141.5726928710937500,18.4115009307861330,31.1770801544189450,76,684,95,78,66,11411,2146961408,2147515684,2147267748,2147449974,2147073261,2146960749,2147646976,2147127204,3504,-1,8,1890
1363884242,5806,342.5599975585937500,18.5179996490478500,36.5932998657226560,220.4705963134765600,138.3222961425781200,18.5097694396972660,31.2323894500732420,78,715,96,78,67,11412,2146958774,2147512941,2147265536,2147449426,2147077293,2146954240,2147648502,2147126848,3234,-2,8,8581
1363884381,5809,331.2900085449219000,18.5244007110595700,36.5877990722656250,222.0399017333984400,137.6398925781250000,18.5303993225097660,31.1422805786132800,78,721,94,79,67,11412,2146959387,2147515501,2147265161,2147450102,2147082450,2146959533,2147650121,2147129874,2642,-2,9,65212
1363884522,5805,320.1499938964844000,18.5851993560791000,36.5834999084472660,223.4141998291015600,135.9167022705078000,18.5825099945068360,31.0488796234130860,79,735,93,79,67,11413,2146960438,2147512832,2147264749,2147451437,2147081901,2146957019,2147652818,2147127762,2334,-2,8,8833
1363884661,5803,309.3200073242187500,18.7584991455078120,36.6026000976562500,217.5171966552734400,130.3374023437500000,18.7512702941894530,31.2791404724121100,78,725,94,79,68,11404,2146958811,2147514989,2147264173,2147450093,2147074980,2146959488,2147647707,2147127003,1512,-1,9,32625
1363884845,5806,295.6000061035156000,18.8208999633789060,36.5677986145019500,227.1925048828125000,128.2662963867187500,18.8139305114746100,30.7566394805908200,78,726,93,79,67,11408,2146960374,2147513746,2147264045,2147451986,2147077924,2146960283,2147647570,2147128173,1425,-2,8,51953
1363884972,5806,284.5299987792969000,19.1245994567871100,36.6031990051269500,225.7758026123047000,118.5113983154296900,19.1092395782470700,30.6976394653320300,77,695,95,79,67,11398,2146958162,2147513115,2147265947,2147448813,2147075163,2146963611,2147656246,2147128539,1046,-1,8,48759
1363885099,5806,273.4500122070312500,19.2780990600585940,36.6040992736816400,227.0090026855468800,111.9452972412109400,19.3081607818603500,30.5491199493408200,78,702,95,79,67,11401,2146962477,2147514596,2147264740,2147448356,2147080640,2146970496,2147660937,2147128758,1116,-1,8,55849
1363885229,5806,262.1199951171875000,19.5102005004882800,36.6235008239746100,228.1195068359375000,104.9153976440429700,19.5212707519531250,30.4015407562255860,78,704,95,79,67,11398,2146959670,2147515346,2147264557,2147448036,2147084160,2146966665,2147649408,2147128694,1218,-1,8,3079
1363885356,5802,250.7299957275390600,19.6081008911132800,36.6125984191894500,233.4589996337890600,102.1408996582031200,19.6054191589355470,30.1058101654052730,79,687,97,81,65,11391,2146959058,2147510912,2147263744,2147443876,2147077595,2146976356,2147666788,2147129856,1339,-1,9,599
1363885485,5807,239.1900024414062500,19.7723007202148440,36.6110992431640600,237.6900024414062500,96.5969772338867200,19.7736492156982420,29.8332099914550780,80,781,98,80,65,11378,2146957193,2147514816,2147263945,2147444653,2147086537,2146980077,2147686354,2147130112,1424,-2,8,10794
1363885612,5803,228.2400054931640600,19.8759994506835940,36.6105995178222660,243.5769042968750000,93.1414337158203100,19.8785591125488280,29.5171394348144530,81,738,98,81,64,11198,2146957851,2147513746,2147264749,2147443318,2147085760,2146970422,2147654582,2147130953,1686,-2,8,25722
1363885739,5806,217.6999969482422000,19.8980007171630860,36.6142005920410160,249.8916015625000000,92.6838226318359400,19.8924503326416000,29.2286891937255860,82,718,99,82,63,11356,2146958134,2147515876,2147265225,2147443812,2147086134,2147004041,2147723830,2147131300,2317,-1,8,54550
1363885881,5806,206.7799987792968800,20.0077991485595700,36.6180000305175800,252.6833038330078000,89.1104583740234400,20.0009803771972660,29.0610408782959000,83,755,100,83,63,11342,2146960045,2147517970,2147267474,2147444507,2147092507,2147023277,2147760466,2147133220,2174,-2,9,7189
1363886008,5807,197.7100067138672000,20.0403003692626950,36.6166000366210940,255.7902984619140600,87.9206466674804700,20.0371303558349600,28.9118003845214840,84,717,103,84,63,11314,2146954688,2147515373,2147266660,2147440768,2147093851,2147038820,2147781284,2147136658,1866,-1,9,21739
1363886063,5808,193.8800048828125000,20.0419006347656250,36.6106986999511700,256.3510131835937500,87.9419937133789000,20.0364799499511720,28.8882198333740230,82,726,101,84,62,11330,2146957842,2147514870,2147268864,2147444388,2147095195,2147060626,2147826596,2147139227,1833,-2,9,14237
1363886138,5807,188.8000030517578000,20.0995998382568360,36.6123008728027340,255.9976959228515600,85.9440536499023400,20.0971908569335940,28.8779792785644530,85,764,100,86,63,11316,2146959753,2147514496,2147264137,2147443410,2147090075,2147011346,2147717641,2147132982,1823,-1,9,23852
1363886193,5809,185.1199951171875000,20.1128997802734380,36.6087989807128900,256.0147094726562500,85.3697128295898400,20.1146507263183600,28.8698692321777340,83,738,100,84,62,11321,2146960832,2147517339,2147270080,2147442733,2147102848,2147113856,2147904054,2147144603,1714,-1,9,17353
1363886248,5803,181.2100067138672000,20.1944999694824220,36.6128005981445300,256.3729858398437500,82.9838867187500000,20.1871700286865230,28.8242492675781250,84,755,101,84,63,11312,2146960804,2147518454,2147272347,2147446189,2147105234,2147095835,2147876781,2147141650,1327,-1,9,54393
1363886303,5805,177.2700042724609400,20.2194995880126950,36.6157989501953100,256.8092956542969000,82.0559768676757800,20.2153797149658200,28.7940807342529300,83,756,103,94,63,11312,2146959689,2147516059,2147268068,2147442953,2147100169,2147060269,2147802971,2147137417,1115,-2,9,43521
1363886358,5807,173.1900024414062500,20.3239002227783200,36.6223983764648440,257.4818115234375000,78.8406982421875000,20.3131504058837900,28.7246704101562500,84,713,101,84,62,11300,2146961133,2147517970,2147268909,2147442294,2147104694,2147093412,2147847104,2147140516,965,-1,9,1857
1363886413,5805,169.6199951171875000,20.3243999481201170,36.6185989379882800,258.9281921386719000,78.5529327392578100,20.3219108581542970,28.6600799560546880,84,763,101,85,61,11305,2146956397,2147513078,2147266459,2147441600,2147103762,2147054363,2147779428,2147136457,1009,-1,9,17299
1363886492,5804,165.1699981689453000,20.3229999542236330,36.6175994873046900,259.9466857910156000,78.6265029907226600,20.3196697235107420,28.6182193756103500,84,713,101,85,62,11302,2146960420,2147523309,2147284973,2147441636,2147154176,2147308608,2148225270,2147165074,722,-1,9,52034
1363886571,5800,161.5700073242187500,20.3369998931884770,36.6189994812011700,260.1531982421875000,78.1671066284179700,20.3336391448974600,28.6039009094238280,84,733,102,85,62,11289,2146964013,2147526208,2147288128,2147439588,2147155995,2147319917,2148235721,2147164763,1158,-2,9,35626
1363886662,5807,157.5500030517578000,20.3815002441406250,36.6255989074707000,259.3357849121094000,76.2436294555664000,20.3921604156494140,28.6138801574707030,83,720,102,88,63,11305,2146961755,2147528128,2147287204,2147442157,2147179483,2147418377,2148377536,2147175277,925,-1,9,58855
1363886753,5804,153.6100006103515600,20.5041007995605470,36.6403007507324200,257.3782958984375000,72.8146362304687500,20.4965095520019530,28.6530208587646500,83,728,102,85,63,11300,2146961627,2147525485,2147281444,2147444425,2147165220,2147326290,2148194468,2147165348,1335,-1,9,54769
1363886847,5805,150.2599945068359400,20.7709007263183600,36.6614990234375000,249.9414978027343800,65.5666122436523400,20.7172508239746100,28.8810691833496100,81,706,101,83,64,11328,2146963748,2147528896,2147299163,2147440557,2147223634,2147565924,2148594212,2147191872,1244,-2,9,62780
1363886974,5803,147.3899993896484400,20.8665008544921880,36.6735992431640600,243.3291931152343800,61.1227798461914060,20.8526802062988280,29.1182308197021500,81,703,97,83,64,11349,2146964132,2147534893,2147300909,2147437421,2147240310,2147630134,2148690861,2147195154,1594,-2,9,4402
1363887157,5805,142.9700012207031200,20.9417991638183600,36.6813011169433600,236.9564971923828000,58.2832794189453100,20.9392700195312500,29.3737201690673830,80,703,99,83,65,11364,2146963584,2147527725,2147289234,2147440054,2147225920,2147515529,2148454180,2147179565,2220,-2,9,37391
1363887260,5805,138.8300018310547000,21.0893001556396500,36.6678009033203100,238.8202056884765600,52.9426116943359400,21.1022090911865230,29.2192401885986330,80,716,98,82,65,11369,2146961682,2147522386,2147278683,2147437750,2147173942,2147298258,2148101229,2147161362,1984,-2,9,57889
1363887387,5802,135.0500030517578000,21.2469997406005860,36.6483001708984400,249.0379943847656200,48.5991897583007800,21.2348308563232420,28.7061004638671880,80,704,100,83,61,11362,2146969005,2147547145,2147322477,2147439762,2147383780,2148098450,2149314441,2147234925,1526,-2,9,19088
1363887502,5805,130.3699951171875000,21.3101997375488280,36.6458015441894500,252.1192016601562500,46.3341407775878900,21.3040199279785160,28.5440406799316400,81,706,99,84,62,11344,2146961837,2147526226,2147278546,2147436800,2147207003,2147380672,2148195593,2147163702,1511,-2,9,63053
1363887581,5804,126.5599975585937500,21.3547992706298830,36.6379013061523440,251.7048034667968800,44.8836097717285160,21.3483390808105470,28.5435600280761720,81,717,100,83,63,11341,2146963062,2147531593,2147291584,2147436827,2147280210,2147603702,2148497828,2147180416,1159,-1,9,44185
1363887672,5804,122.4800033569336000,21.3785991668701170,36.6369018554687500,252.0944061279297000,44.0697784423828100,21.3732109069824220,28.5168495178222660,82,706,99,83,62,11327,2146976850,2147570075,2147355986,2147437824,2147635227,2148770368,2150173184,2147291602,986,-2,9,47815
1363887765,5807,118.6100006103515600,21.3792991638183600,36.6366004943847660,252.4593963623047000,43.9661293029785160,21.3763809204101560,28.4998893737792970,82,710,102,83,63,11329,2146974921,2147559707,2147327808,2147435629,2147510912,2148293988,2149441188,2147244096,997,-2,9,1893
1363887856,5807,114.9000015258789000,21.3796005249023440,36.6357002258300800,252.5135040283203000,43.9841194152832000,21.3758296966552730,28.4975700378417970,83,713,99,84,62,11335,2146987318,2147593974,2147394651,2147439835,2147935680,2149532160,2151174482,2147358793,813,-2,9,44054
1363887959,5806,110.6500015258789000,21.4316005706787100,36.6408004760742200,252.0776977539062500,42.4600296020507800,21.4224205017089840,28.4970798492431640,82,708,100,84,61,11331,2146994084,2147609106,2147416923,2147440877,2148113910,2149937051,2151699035,2147397147,853,-1,9,13236
1363888050,5804,106.7399978637695300,21.5098991394042970,36.6460990905761700,251.2684020996093800,39.9364318847656250,21.4995803833007800,28.5005092620849600,82,720,100,83,61,11331,2146986422,2147578212,2147358857,2147437092,2147867300,2149032018,2150325476,2147317513,1188,-2,9,9964
1363888144,5804,102.9300003051757800,21.5837001800537100,36.6456985473632800,248.9987945556640600,37.3666992187500000,21.5781803131103500,28.5666198730468750,82,711,100,85,63,11326,2146984960,2147572141,2147353947,2147437769,2147819894,2148853942,2150063131,2147294564,1124,-2,9,40168
1363888247,5804,98.9100036621093800,21.6627006530761720,36.6416015625000000,246.1354980468750000,34.8896217346191400,21.6539802551269530,28.6610908508300780,81,685,99,84,62,11332,2147008630,2147639277,2147457316,2147441965,2148612370,2150846857,2152765906,2147489874,1166,-2,9,833
1363888302,5806,96.9300003051757800,21.6774005889892580,36.6400985717773440,245.4403991699218800,34.2890090942382800,21.6723709106445300,28.6842994689941400,81,696,100,86,62,11331,2146998326,2147598582,2147389549,2147435904,2148184027,2149663094,2151093211,2147378404,1359,-2,9,41378
1363888357,5805,95.1500015258789000,21.6895008087158200,36.6338005065918000,245.3267059326172000,33.8725090026855500,21.6851100921630860,28.6842899322509770,82,729,99,83,63,11339,2146994898,2147593097,2147378532,2147441563,2148165302,2149480850,2150778240,2147359003,1338,-2,9,51315
1363888437,5802,92.1399993896484400,21.7087001800537100,36.6254005432128900,247.2548065185547000,33.0124588012695300,21.7114391326904300,28.5882892608642580,81,734,101,83,62,11332,2146988708,2147570806,2147344384,2147435885,2147912219,2148824027,2149896585,2147295149,1357,-2,9,7987
1363888492,5807,89.5000000000000000,21.7816009521484380,36.6241989135742200,248.7297973632812500,30.9264106750488280,21.7753200531005860,28.4976806640625000,83,745,99,83,61,11338,2146989677,2147576905,2147350720,2147436141,2147991561,2148939337,2150024246,2147310116,1362,-2,9,31683
1363888547,5805,87.0000000000000000,21.8087005615234380,36.6114006042480500,248.7201995849609400,30.0874996185302730,21.8010101318359380,28.4874897003173830,82,727,100,84,61,11339,2146997632,2147589796,2147371254,2147439734,2148209316,2149348534,2150515072,2147352548,1127,-2,9,58816
1363888602,5806,84.7600021362304700,21.8332004547119140,36.5895004272460940,247.4788970947265600,29.2066001892089840,21.8279991149902340,28.5307903289794920,82,720,99,82,64,11348,2147029732,2147654400,2147462893,2147443666,2149127936,2151335259,2153062921,2147554770,877,-2,9,36774
1363888657,5806,82.8000030517578100,21.8414001464843750,36.5816993713378900,246.9911956787109400,28.9373207092285160,21.8362503051757800,28.5487003326416000,81,700,99,83,64,11346,2147007378,2147606299,2147391442,2147438381,2148502080,2149859940,2151112082,2147399533,632,-2,9,21404
1363888715,5805,80.7900009155273400,21.8479003906250000,36.5727996826171900,247.0345001220703000,28.6704101562500000,21.8444194793701170,28.5434799194335940,82,710,100,83,62,11346,2147015396,2147618870,2147413092,2147437494,2148681124,2150212873,2151569252,2147444754,752,-2,9,65469
1363888770,5802,78.9800033569336000,21.8668994903564450,36.5418014526367200,247.5783996582031200,28.0584907531738280,21.8631706237792970,28.5119800567626950,81,701,99,83,62,11335,2147110665,2147800576,2147701165,2147459437,2151267867,2155749851,2158891181,2148065353,583,-1,9,4301
1363888837,5808,76.9400024414062500,21.8953990936279300,36.5311012268066400,248.2185974121093800,27.1797504425048830,21.8901004791259770,28.4729900360107420,82,709,101,86,63,11322,2147015899,2147620233,2147409563,2147440566,2148771364,2150217152,2151508260,2147453430,638,-1,8,45478
1363888892,5807,75.1800003051757800,21.9326000213623050,36.5203018188476560,248.6103973388672000,26.0390205383300780,21.9250602722167970,28.4417705535888670,84,707,102,85,62,11319,2147130368,2147823378,2147744420,2147466770,2151663497,2156220790,2159413001,2148145344,474,-2,8,8630
1363888959,5805,73.2099990844726600,21.9648990631103500,36.5091018676757800,249.6667938232422000,24.8208808898925780,21.9624004364013670,28.3804893493652340,84,681,103,86,63,11307,2147170121,2147880091,2147808374,2147468781,2152823542,2158246811,2161916699,2148403958,3060,-2,9,31590
1363889038,5802,70.5299987792968800,21.9803009033203120,36.5021018981933600,250.6629943847656200,24.3485202789306640,21.9768791198730470,28.3315505981445300,87,732,103,85,63,11284,2147175222,2147869211,2147782656,2147465664,2152917613,2157930422,2161489938,2148449234,2408,-2,9,13668
1363889093,5802,67.9400024414062500,22.0027999877929700,36.4982986450195300,251.7398986816406200,23.6301898956298830,21.9989109039306640,28.2765197753906250,85,694,101,86,64,11280,2147107574,2147750390,2147598985,2147455588,2151197577,2154200310,2156448082,2148000987,2524,-2,9,10199
1363889148,5804,65.3799972534179700,22.0091991424560550,36.4990005493164060,252.0093994140625000,23.3857994079589840,22.0063991546630860,28.2618007659912100,88,733,101,85,64,11276,2147203849,2147879515,2147797906,2147473024,2153682404,2158441929,2161871350,2148655881,2702,-2,9,36246
1363889203,5808,62.9700012207031250,22.0126991271972660,36.4980010986328100,252.3150024414062500,23.2362098693847660,22.0109901428222660,28.2469406127929700,88,716,102,85,62,11256,2147342473,2148083638,2148095716,2147500754,2157263104,2164343323,2169398930,2149614025,2585,-1,9,49356
1363889258,5802,60.5600013732910160,22.0188999176025400,36.4972991943359400,252.1880950927734400,23.0307598114013670,22.0172901153564450,28.2497501373291000,91,745,100,85,62,11259,2147412726,2148171172,2148224667,2147513371,2159038080,2166858340,2172410770,2150084708,2448,-2,9,26675
1363889313,5803,58.0400009155273440,22.0778999328613280,36.4882011413574200,252.1101989746093800,21.1765098571777340,22.0741596221923830,28.2299900054931640,90,735,104,86,63,11240,2147472310,2148240210,2148306678,2147528128,2160611245,2168743433,2174401947,2150531291,2293,-2,8,43949
1363889371,5808,55.4700012207031250,22.1016006469726560,36.4841003417968750,251.8784942626953000,19.4781494140625000,22.1262607574462900,28.2187500000000000,88,718,102,86,63,11236,2147252534,2147905892,2147801325,2147482752,2154705444,2158280091,2160651638,2148796169,1721,-2,9,43755
1363889513,5804,49.8499984741210940,22.2036991119384770,36.4697990417480500,252.2046051025390600,16.9755897521972660,22.2030696868896500,28.1737709045410160,90,728,104,88,62,11223,2147759853,2148581248,2148760228,2147605851,2167438829,2177136365,2183145316,2152304896,1473,-2,9,39577
1363889548,5804,47.9799995422363300,22.1914005279541000,36.4715003967285160,252.3894042968750000,16.2856807708740230,22.2242507934570300,28.1573600769042970,90,754,101,87,62,11228,2147927460,2148795638,2149069558,2147660800,2171699382,2183096457,2189949915,2153464630,1387,-2,9,59625
1363889581,5803,46.2599983215332000,22.2541999816894530,36.4642982482910160,252.8002014160156200,15.6472101211547850,22.2438507080078120,28.1318397521972660,87,709,104,86,62,11229,2148021284,2148907894,2149211446,2147683684,2173945709,2185884196,2192713060,2154070976,1368,-2,9,5839
1363889614,5806,44.6599998474121100,22.2598991394042970,36.4627990722656250,253.0993041992187500,15.1522302627563480,22.2590503692626950,28.1130409240722660,86,700,103,87,62,11234,2148176557,2149089462,2149493641,2147779584,2177634925,2190700425,2197867117,2155086372,1152,-2,8,22774
1363889660,5804,42.6599998474121100,22.2742996215820300,36.4604988098144500,253.2812957763672000,14.6318702697753900,22.2750301361084000,28.0988006591796880,89,760,102,87,65,11228,2148273856,2149193664,2149533293,2147740233,2180445083,2194123849,2201219355,2155891730,1532,-2,9,48858
1363889721,5803,40.5099983215332000,22.3010997772216800,36.4590988159179700,253.3148040771484400,13.2184200286865230,22.3184394836425780,28.0798492431640620,86,720,104,88,61,11233,2148191149,2149047433,2149304274,2147743597,2178040932,2189731099,2195254902,2155161773,1378,-2,9,37665
1363889767,5806,38.7500000000000000,22.3267993927001950,36.4579010009765600,253.8601989746093800,13.0298900604248050,22.3242301940917970,28.0545597076416000,87,777,104,87,64,11232,2148671378,2149653449,2150215305,2148062043,2189704091,2205772123,2212835227,2158647981,933,-1,8,50857
1363889813,5808,36.5900001525878900,22.3243007659912100,36.4580001831054700,254.0518035888672000,12.7435998916625980,22.3330307006835940,28.0426502227783200,86,713,102,87,66,11235,2149003437,2150041024,2150702902,2148208009,2198513325,2216940973,2224448630,2161445211,1008,0,9,17385
1363889859,5806,34.8300018310546900,22.3250007629394530,36.4592018127441400,253.9954986572265600,12.9535703659057620,22.3265800476074220,28.0477695465087900,86,725,103,85,61,11233,2148333010,2149173138,2149421915,2147812068,2180515190,2190858450,2193904704,2155332352,1168,0,9,64791
1363889931,5806,32.9000015258789060,22.3241996765136720,36.4589996337890600,254.8372955322265600,12.6170196533203120,22.3369197845459000,28.0080795288085940,86,711,102,85,60,11227,2149450459,2150523931,2151190518,2148236077,2210949092,2231799771,2238758418,2165377920,1266,-3,8,2719
1363890026,5805,30.6700000762939450,22.3318004608154300,36.4589996337890600,254.3088989257812500,12.6025600433349610,22.3373603820800780,28.0303001403808600,82,623,103,85,62,11233,2147999762,2148681837,2148668626,2147714139,2173235675,2179148918,2179537243,2153379675,1207,-1,9,57989